TimeCDT,TemperatureF,Dew PointF,Humidity,Sea Level PressureIn,VisibilityMPH,Wind Direction,Wind SpeedMPH,Gust SpeedMPH,PrecipitationIn,Events,Conditions,WindDirDegrees,DateUTC
12:54 AM,71.1,64.9,81,29.78,10.0,South,10.4,-,N/A,,Scattered Clouds,170,2013-10-05 05:54:00
1:54 AM,70.0,66.0,87,29.79,10.0,South,6.9,-,N/A,,Scattered Clouds,180,2013-10-05 06:54:00
2:54 AM,69.1,66.0,90,29.80,10.0,SW,4.6,-,N/A,,Scattered Clouds,220,2013-10-05 07:54:00
3:54 AM,66.9,63.0,87,29.79,10.0,West,10.4,-,N/A,,Clear,270,2013-10-05 08:54:00
4:54 AM,63.0,61.0,93,29.81,10.0,Calm,Calm,-,N/A,,Clear,0,2013-10-05 09:54:00
5:54 AM,61.0,55.0,81,29.84,10.0,WSW,8.1,-,N/A,,Clear,250,2013-10-05 10:54:00
6:54 AM,59.0,55.0,87,29.84,10.0,WSW,9.2,-,0.00,,Scattered Clouds,250,2013-10-05 11:54:00
7:54 AM,57.9,54.0,87,29.85,10.0,West,4.6,-,N/A,,Partly Cloudy,270,2013-10-05 12:54:00
8:54 AM,57.0,52.0,83,29.89,10.0,SW,10.4,-,0.00,,Partly Cloudy,230,2013-10-05 13:54:00
9:54 AM,54.0,46.0,75,29.88,10.0,WSW,9.2,-,N/A,,Clear,250,2013-10-05 14:54:00
10:54 AM,55.9,45.0,67,29.86,10.0,West,10.4,-,N/A,,Clear,270,2013-10-05 15:54:00
11:54 AM,57.0,42.1,57,29.85,10.0,West,10.4,-,N/A,,Clear,260,2013-10-05 16:54:00
12:54 PM,60.1,42.1,51,29.84,10.0,SW,6.9,16.1,N/A,,Clear,230,2013-10-05 17:54:00
1:54 PM,60.1,39.9,47,29.82,10.0,SW,10.4,-,N/A,,Overcast,220,2013-10-05 18:54:00
2:54 PM,60.1,39.9,47,29.79,10.0,WSW,12.7,-,N/A,,Overcast,240,2013-10-05 19:54:00
3:54 PM,57.9,37.9,47,29.79,10.0,SSW,10.4,-,N/A,,Overcast,210,2013-10-05 20:54:00
4:54 PM,57.9,37.9,47,29.79,10.0,SW,12.7,-,N/A,,Overcast,230,2013-10-05 21:54:00
5:54 PM,57.9,39.0,49,29.77,10.0,SSW,6.9,-,N/A,,Overcast,210,2013-10-05 22:54:00
6:54 PM,54.0,41.0,62,29.79,10.0,SW,3.5,-,N/A,,Clear,220,2013-10-05 23:54:00
7:54 PM,51.1,37.0,59,29.82,10.0,West,9.2,-,N/A,,Clear,260,2013-10-06 00:54:00
8:54 PM,46.9,37.9,71,29.83,10.0,WSW,6.9,-,N/A,,Clear,240,2013-10-06 01:54:00
9:54 PM,46.9,37.0,68,29.83,10.0,SW,8.1,-,N/A,,Clear,230,2013-10-06 02:54:00
10:54 PM,44.1,37.9,79,29.81,10.0,South,3.5,-,N/A,,Clear,190,2013-10-06 03:54:00
11:54 PM,43.0,37.9,82,29.80,10.0,South,5.8,-,N/A,,Mostly Cloudy,190,2013-10-06 04:54:00